Weather Roundup
Issued by NWS

Home | Current Version | Previous Version | Graphics & Text | Print | Product List | Glossary Off
Versions: 1 2 3 4 5 6 7 8 9 10 11 12 13 14 15 16 17 18 19 20 21 22 23 24 25 26 27 28 29 30 31 32 33 34 35 36 37 38 39 40 41 42 43 44 45 46 47 48 49 50

000
NZUS93 KARX 180959
HRRWXR

CURRENT HOURLY OBSERVATIONS ACROSS
MUCH OF THE UPPER MISSISSIPPI VALLEY
NATIONAL WEATHER SERVICE LA CROSSE WI
400 AM CST MON DEC 18 2017


...SOUTHEAST MINNESOTA...


CITY           SKY/WX    TMP DP  RH WIND       PRES   REMARKS
ROCHESTER      FOG       28  27  96 SW7       29.87F VSB 1   WCI  21
ROCHESTER/MAYO CLOUDY    29  29 100 W5        29.90S WCI  24
WINONA         CLOUDY    30  28  93 CALM      29.92S FOG
AUSTIN         NOT AVBL
ALBERT LEA     NOT AVBL
DODGE CENTER   MOCLDY    27  27 100 S6        29.87F FOG     WCI  20
PRESTON        FOG       26  25  96 W5        29.89F VSB 1/2 WCI  21
OWATONNA       CLOUDY    27  25  93 S5        29.87S FOG     WCI  21
FARIBAULT      CLOUDY    27  25  93 S5        29.88R FOG     WCI  21
$$

...ELSEWHERE IN MINNESOTA...


CITY           SKY/WX    TMP DP  RH WIND       PRES   REMARKS
MINNEAPOLIS    CLOUDY    25  25 100 SE5       29.86F FOG     WCI  19
INTNL FALLS    CLOUDY    26  22  84 S7        29.65F FOG     WCI  18
DULUTH         CLOUDY    22  21  96 SW9       29.76F FOG     WCI  12
RED WING       CLOUDY    28  25  86 CALM      29.88S FOG
REDWOOD FALLS  CLOUDY    31  28  89 S10       29.81F WCI  22
MANKATO        CLOUDY    26  24  92 S6        29.87F WCI  19
WORTHINGTON    CLEAR     25  23  92 S8        29.84F WCI  16
FAIRMONT       PTCLDY    25  23  92 SW7       29.88F FOG     WCI  17
$$

...SOUTHWEST WISCONSIN...


CITY           SKY/WX    TMP DP  RH WIND       PRES   REMARKS
LA CROSSE      CLOUDY    31  29  92 W5        29.91S FOG     WCI  26
PRAIRIE DU CHI CLOUDY    32  29  90 CALM      29.92S FOG
BOSCOBEL       CLOUDY    33  29  85 S5        29.92S FOG     WCI  29
LONE ROCK      NOT AVBL
PLATTEVILLE    CLOUDY    34  34 100 W9        29.91S VSB 3/4 WCI  26
FORT MC COY    CLOUDY    29  28  98 CALM      29.91F FOG
CAMP DOUGLAS   CLOUDY    30  30 100 W3        29.89F
MAUSTON-NEW LI CLOUDY    31  30  95 CALM      29.88F FOG
VIROQUA        CLOUDY    30  30 100 CALM      29.88F
WIS DELLS      CLOUDY    30  29  95 CALM      29.89F FOG
$$

...ELSEWHERE IN WISCONSIN...


CITY           SKY/WX    TMP DP  RH WIND       PRES   REMARKS
MILWAUKEE      DRZL/FOG  35  34  96 SW5       29.91S VSB 1   WCI  31
MADISON        FOG       32  32 100 CALM      29.91S VSB 1
GREEN BAY      CLOUDY    30  26  85 W9        29.89S FOG     WCI  22
EAU CLAIRE     NOT AVBL
BLACK RVR FLS  CLOUDY    30  29  99 SW3       29.89F FOG
MEDFORD        FOG       25  24  96 SW3       29.84S VSB 1/2
WAUSAU         CLOUDY    26  26 100 W6        29.85S FOG     WCI  19
WIS RAPIDS     CLOUDY    28  27  96 W3        29.89F FOG
MARSHFIELD     FOG       27  27 100 W5        29.85F VSB 3/4 WCI  22
RICE LAKE      FOG       26  26  99 CALM      29.86F VSB 1/2
$$

...NORTHEAST IOWA...


CITY           SKY/WX    TMP DP  RH WIND       PRES   REMARKS
WATERLOO       CLOUDY    31  27  85 W7        29.93S FOG     WCI  24
DUBUQUE        PTCLDY    32  32 100 SW8       29.91S FOG     WCI  25
DECORAH        CLOUDY    30  30 100 VRB3      29.90R FOG
MASON CITY     CLOUDY    26  25  96 SW6       29.91F FOG     WCI  19
CHARLES CITY   NOT AVBL
OELWEIN        CLOUDY    32  32 100 W10       29.92S FOG     WCI  24
$$

...ELSEWHERE IN IOWA...


CITY           SKY/WX    TMP DP  RH WIND       PRES   REMARKS
DES MOINES     CLEAR     25  23  92 SW9       29.96F FOG     WCI  15
IOWA CITY      CLOUDY    37  33  85 SW7       29.97F WCI  32
FORT DODGE     CLOUDY    20  19  96 SW6       29.93F FOG     WCI  12
MARSHALLTOWN   PTCLDY    25  24  96 SW5       29.93F FOG     WCI  19
CEDAR RAPIDS   CLEAR     27  27 100 SW6       29.93F FOG     WCI  20
$$

...NORTHERN ILLINOIS...


CITY           SKY/WX    TMP DP  RH WIND       PRES   REMARKS
CHICAGO-OHARE  DRIZZLE   43  40  89 SW12      29.92S FOG
CHICAGO-MIDWAY DRIZZLE   43  42  97 SW9       29.93F
MOLINE         CLOUDY    42  40  92 SW7       29.94F FOG
ROCKFORD       LGT RAIN  37  37 100 SW6       29.94S VSB 1/2 WCI  32
PEORIA         CLOUDY    44  43  96 SW7       29.99S
$$

NOTE: "FAIR" INDICATES FEW OR NO CLOUDS BELOW 12,000 FEET WITH NO
SIGNIFICANT WEATHER AND/OR OBSTRUCTIONS TO VISIBILITY. WIND
SPEEDS ARE IN MILES-PER-HOUR.




USA.gov is the U.S. government's official web portal to all federal, state and local government web resources and services.